Powrót do katalogu

COSMOS 1771

AktywnyMilitariaLEO
NORAD 16917·PAYLOAD·🇷🇺 Russia

Wystrzelony Aug 20, 1986 z Baikonur Cosmodrome

Loading…

Następne Przeloty (najbliższe 24 godziny)

TLE

ŚwieżeSource: Space-Track

Epoka: Sep 14, 2026, 00:55 UTC

1 16917U 86062A   26257.03883343 -.00000054  00000-0  31439-4 0  9994
2 16917  64.9820 122.6015 0067434 270.2779  89.0553 13.82652421 24066

Śledź COSMOS 1771 w czasie rzeczywistym z AllMySat

Download on the App Store